Weather History for Rolla, MO

Change the Weather History Date:

Saturday, April 26, 2014

  Actual Average Record
Temperature  
Mean Temperature 65 °F 58 °F  
Max Temperature 76 °F 70 °F 86 °F (1994)
Min Temperature 54 °F 47 °F 32 °F (1976)
Degree Days  
Heating Degree Days 0 8  
Month to date heating degree days 261 287  
Since 1 July heating degree days 5318 4691  
Cooling Degree Days 0 1  
Month to date cooling degree days 8 20  
Year to date cooling degree days 8 24  
Growing Degree Days 15 (Base 50)    
Moisture  
Dew Point 44 °F    
Average Humidity 46    
Maximum Humidity 59    
Minimum Humidity 33    
Precipitation  
Precipitation T in 0.15 in 1.23 in (1964)
Month to date precipitation 2.91 3.60  
Year to date precipitation 5.08 11.15  
Sea Level Pressure  
Sea Level Pressure 29.83 in    
Wind  
Wind Speed 12 mph (SSE)    
Max Wind Speed 23 mph    
Max Gust Speed 27 mph    
Visibility 10 miles    
Events Rain , Thunderstorm    
T = Trace of Precipitation, MM = Missing Value Source: NWS Daily Summary

Daily Weather History Graph

Daily Weather History Graph

Search for Another Location

Airport:

Trip Planner

Search our weather history database for the weather conditions in past years. The results will help you decide how hot, cold, wet, or windy it might be!

Date:

Astronomy

Apr. 26, 2014 Rise Set
Actual Time 6:16 AM CDT 7:53 PM CDT
Civil Twilight 5:48 AM CDT 8:21 PM CDT
Nautical Twilight 5:15 AM CDT 8:55 PM CDT
Astronomical Twilight 4:39 AM CDT 9:31 PM CDT
Moon 4:38 AM CDT (4/26) 5:24 PM CDT (4/26)
Length of Visible Light 14h 32m
Length of Day
13h 36m
Waning Crescent, 8% of the Moon is Illuminated
Apr 26
Waning Crescent
Apr 29
New
May 6
First Quarter
May 14
Full
May 21
Last Quarter

Hourly Weather History & Observations

Time (CDT) Temp. Dew Point Humidity Pressure Visibility Wind Dir Wind Speed Gust Speed Precip Events Conditions
12:53 AM 60.1 °F 37.9 °F 44% 29.88 in 10.0 mi South 12.7 mph - N/A   Clear
1:53 AM 57.9 °F 39.0 °F 49% 29.88 in 10.0 mi South 10.4 mph - N/A   Clear
2:53 AM 55.9 °F 39.9 °F 55% 29.87 in 10.0 mi SSW 9.2 mph - N/A   Clear
3:53 AM 55.0 °F 41.0 °F 59% 29.86 in 10.0 mi South 10.4 mph - N/A   Clear
4:53 AM 55.9 °F 41.0 °F 57% 29.86 in 10.0 mi South 10.4 mph - N/A   Clear
5:53 AM 55.0 °F 41.0 °F 59% 29.87 in 10.0 mi SSW 11.5 mph - N/A   Clear
6:53 AM 55.0 °F 41.0 °F 59% 29.88 in 10.0 mi South 10.4 mph - N/A   Clear
7:53 AM 60.1 °F 43.0 °F 53% 29.89 in 10.0 mi South 10.4 mph - N/A   Clear
8:53 AM 66.0 °F 43.0 °F 43% 29.89 in 10.0 mi South 10.4 mph - N/A   Clear
9:53 AM 66.0 °F 45.0 °F 47% 29.89 in 10.0 mi South 9.2 mph - N/A   Clear
10:53 AM 66.9 °F 45.0 °F 45% 29.89 in 10.0 mi SSE 11.5 mph - N/A   Clear
11:53 AM 66.0 °F 46.0 °F 48% 29.90 in 10.0 mi South 11.5 mph - N/A   Clear
12:53 PM 66.9 °F 46.0 °F 47% 29.88 in 10.0 mi South 13.8 mph - N/A   Scattered Clouds
1:53 PM 64.9 °F 46.9 °F 52% 29.87 in 9.0 mi Calm Calm - 0.00 in Rain Light Rain
2:43 PM 68.0 °F 46.0 °F 45% 29.89 in 10.0 mi ENE 6.9 mph - 0.00 in Thunderstorm Mostly Cloudy
2:53 PM 66.9 °F 46.9 °F 49% 29.84 in 10.0 mi East 10.4 mph - 0.00 in Thunderstorm Mostly Cloudy
3:04 PM 66.9 °F 46.0 °F 47% 29.84 in 10.0 mi ESE 13.8 mph - N/A   Scattered Clouds
3:14 PM 66.9 °F 46.9 °F 49% 29.81 in 10.0 mi SE 17.3 mph - N/A   Scattered Clouds
3:53 PM 72.0 °F 46.9 °F 41% 29.77 in 10.0 mi SE 17.3 mph 24.2 mph N/A   Clear
4:53 PM 73.9 °F 48.0 °F 40% 29.75 in 10.0 mi SSE 18.4 mph - N/A   Clear
5:53 PM 75.0 °F 44.1 °F 33% 29.74 in 10.0 mi SSE 15.0 mph - N/A   Clear
6:53 PM 73.0 °F 43.0 °F 34% 29.75 in 10.0 mi SSE 12.7 mph 21.9 mph N/A   Clear
7:53 PM 71.1 °F 41.0 °F 34% 29.74 in 10.0 mi SE 13.8 mph - N/A   Clear
8:53 PM 69.1 °F 39.9 °F 35% 29.74 in 10.0 mi SE 11.5 mph - N/A   Clear
9:53 PM 68.0 °F 44.1 °F 42% 29.75 in 10.0 mi SE 11.5 mph 21.9 mph N/A   Clear
10:53 PM 66.9 °F 46.0 °F 47% 29.74 in 10.0 mi SE 15.0 mph - N/A   Clear
11:53 PM 66.0 °F 46.0 °F 48% 29.72 in 10.0 mi SE 13.8 mph - N/A   Clear